Location: Arboucave
(43.6130°N, 0.4343°W)
Time: 12:13:15
(UTC+00:00)

SMAP - Pass Details

Date: 17 November 2025
Orbit: 681 x 683 km, 98.1° (Epoch: 11 December)

Event Time Altitude Azimuth Distance (km) Brightness Sun altitude
Rises 17:34:18 0° 171° (S) 3,031 6.5 -10.9°
Reaches altitude 10° 17:36:33 10° 174° (S) 2,120 5.7 -11.3°
Maximum altitude 17:41:10 70° 258° (WSW) 730 3.4 -12.1°
Drops below altitude 10° 17:45:50 10° 342° (NNW) 2,136 5.7 -12.9°
Sets 17:48:06 0° 345° (NNW) 3,055 6.4 -13.3°
